Location: Lane
(33.5226°N, 79.8788°W)
Time: 19:10:33
(UTC+00:00)

Courier 1B Rocket - Pass Details

Date: 07 October 2022
Orbit: 920 x 1202 km, 28.3° (Epoch: 01 December)

Event Time Altitude Azimuth Distance (km) Brightness Sun altitude
Rises 03:15:16 0° 269° (W) 3,668 8.4 -51.7°
Enters shadow 03:16:08 - 267° (W) 3,377 8.2 -51.9°
Reaches altitude 10° 03:18:17 10° 259° (W) 2,682 - -52.2°
Maximum altitude 03:23:44 29° 201° (SSW) 1,616 - -53.0°
Drops below altitude 10° 03:29:02 10° 142° (SE) 2,601 - -53.8°
Sets 03:31:56 0° 132° (SE) 3,540 - -54.2°
